Location: ????????
(55.3155°N, 39.2900°E)
Time: 17:43:55
(UTC+00:00)

ACS3 Solar Sail - Pass Details

Date: 18 November 2025
Orbit: 889 x 1003 km, 97.3° (Epoch: 06 December)

Event Time Altitude Azimuth Distance (km) Brightness Sun altitude
Rises 03:02:02 0° 9° (N) 3,557 4.7 -16.6°
Reaches altitude 10° 03:05:05 10° 353° (N) 2,630 3.9 -16.1°
Maximum altitude 03:09:05 19° 310° (NW) 2,059 3.0 -15.6°
Enters shadow 03:09:14 19° 308° (NW) 2,061 3.0 -15.6°
